Time,TemperatureF,DewpointF,PressureIn,WindDirection,WindDirectionDegrees,WindSpeedMPH,WindSpeedGustMPH,Humidity,HourlyPrecipIn,Conditions,Clouds,dailyrainin,SoftwareType,DateUTC
2013-03-02 00:01:00,40.3,23.5,30.35,NNW,343,0.0,0.0,51,0.00,,,0.00,meteohub,2013-03-02 06:01:00,
2013-03-02 00:06:00,40.3,24.1,30.35,NNW,343,0.0,4.0,52,0.00,,,0.00,meteohub,2013-03-02 06:06:00,
2013-03-02 00:11:00,40.3,24.4,30.35,NNW,343,0.0,4.0,53,0.00,,,0.00,meteohub,2013-03-02 06:11:00,
2013-03-02 00:16:00,39.9,24.3,30.35,NNW,343,0.0,4.0,53,0.00,,,0.00,meteohub,2013-03-02 06:16:00,
2013-03-02 00:21:00,39.7,24.1,30.35,NNW,343,0.0,2.0,53,0.00,,,0.00,meteohub,2013-03-02 06:21:00,
2013-03-02 00:26:00,39.6,23.9,30.36,NNW,343,0.0,2.0,53,0.00,,,0.00,meteohub,2013-03-02 06:26:00,
2013-03-02 00:31:00,39.2,23.9,30.36,NNW,343,0.0,2.0,54,0.00,,,0.00,meteohub,2013-03-02 06:31:00,
2013-03-02 00:36:00,39.0,23.7,30.36,NNW,343,0.0,0.0,54,0.00,,,0.00,meteohub,2013-03-02 06:36:00,
2013-03-02 00:41:00,39.0,23.7,30.36,NNW,343,0.0,0.0,54,0.00,,,0.00,meteohub,2013-03-02 06:41:00,
2013-03-02 00:46:00,38.8,24.1,30.37,NNW,343,0.0,0.0,55,0.00,,,0.00,meteohub,2013-03-02 06:46:00,
2013-03-02 00:51:00,39.0,24.6,30.37,NNW,343,0.0,0.0,56,0.00,,,0.00,meteohub,2013-03-02 06:51:00,
2013-03-02 00:56:00,39.0,24.6,30.37,NNW,343,0.0,0.0,56,0.00,,,0.00,meteohub,2013-03-02 06:56:00,
2013-03-02 01:01:00,39.0,24.6,30.37,NNW,343,0.0,0.0,56,0.00,,,0.00,meteohub,2013-03-02 07:01:00,
2013-03-02 01:06:00,39.0,24.6,30.37,NNW,343,0.0,0.0,56,0.00,,,0.00,meteohub,2013-03-02 07:06:00,
2013-03-02 01:11:00,39.0,24.6,30.38,NNW,343,0.0,0.0,56,0.00,,,0.00,meteohub,2013-03-02 07:11:00,
2013-03-02 01:16:00,39.0,25.2,30.38,NNW,342,0.0,0.0,57,0.00,,,0.00,meteohub,2013-03-02 07:16:00,
2013-03-02 01:21:00,39.0,25.5,30.38,NNW,342,0.0,0.0,58,0.00,,,0.00,meteohub,2013-03-02 07:21:00,
2013-03-02 01:26:00,38.8,25.0,30.38,NNW,329,0.0,2.0,57,0.00,,,0.00,meteohub,2013-03-02 07:26:00,
2013-03-02 01:31:00,38.8,25.3,30.38,WSW,253,0.0,5.0,58,0.00,,,0.00,meteohub,2013-03-02 07:31:00,
2013-03-02 01:36:00,38.8,25.0,30.38,WSW,250,0.0,5.0,57,0.00,,,0.00,meteohub,2013-03-02 07:36:00,
2013-03-02 01:41:00,38.5,24.6,30.38,WSW,252,0.0,5.0,57,0.00,,,0.00,meteohub,2013-03-02 07:41:00,
2013-03-02 01:46:00,38.1,23.9,30.39,WSW,252,0.0,5.0,56,0.00,,,0.00,meteohub,2013-03-02 07:46:00,
2013-03-02 01:51:00,37.9,24.1,30.39,WSW,251,0.0,1.0,57,0.00,,,0.00,meteohub,2013-03-02 07:51:00,
2013-03-02 01:56:00,37.8,23.9,30.39,WSW,242,1.0,7.0,57,0.00,,,0.00,meteohub,2013-03-02 07:56:00,
2013-03-02 02:01:00,37.6,23.7,30.39,WSW,242,0.0,7.0,57,0.00,,,0.00,meteohub,2013-03-02 08:01:00,
2013-03-02 02:06:00,37.4,23.9,30.39,WSW,242,0.0,7.0,58,0.00,,,0.00,meteohub,2013-03-02 08:06:00,
2013-03-02 02:11:00,37.2,23.7,30.39,WSW,242,0.0,3.0,58,0.00,,,0.00,meteohub,2013-03-02 08:11:00,
2013-03-02 02:16:00,37.0,23.7,30.38,WSW,242,0.0,4.0,58,0.00,,,0.00,meteohub,2013-03-02 08:16:00,
2013-03-02 02:22:00,36.9,23.5,30.38,WSW,242,0.0,5.0,58,0.00,,,0.00,meteohub,2013-03-02 08:22:00,
2013-03-02 02:26:00,36.7,23.4,30.38,WSW,243,0.0,5.0,58,0.00,,,0.00,meteohub,2013-03-02 08:26:00,
2013-03-02 02:32:00,36.3,23.4,30.39,WSW,247,0.0,5.0,59,0.00,,,0.00,meteohub,2013-03-02 08:32:00,
2013-03-02 02:37:00,36.3,24.1,30.38,WSW,247,0.0,4.0,61,0.00,,,0.00,meteohub,2013-03-02 08:37:00,
2013-03-02 02:42:00,36.1,24.4,30.38,WSW,247,0.0,4.0,62,0.00,,,0.00,meteohub,2013-03-02 08:42:00,
2013-03-02 02:47:00,36.3,24.6,30.38,WSW,247,0.0,0.0,62,0.00,,,0.00,meteohub,2013-03-02 08:47:00,
2013-03-02 02:52:00,36.3,24.6,30.38,WSW,248,0.0,6.0,62,0.00,,,0.00,meteohub,2013-03-02 08:52:00,
2013-03-02 02:57:00,36.7,25.0,30.38,WSW,248,0.0,6.0,62,0.00,,,0.00,meteohub,2013-03-02 08:57:00,
2013-03-02 03:02:00,36.5,24.3,30.38,WSW,248,0.0,6.0,61,0.00,,,0.00,meteohub,2013-03-02 09:02:00,
2013-03-02 03:07:00,36.1,24.1,30.38,WSW,250,0.0,0.0,61,0.00,,,0.00,meteohub,2013-03-02 09:07:00,
2013-03-02 03:12:00,36.0,24.3,30.38,WSW,250,0.0,4.0,62,0.00,,,0.00,meteohub,2013-03-02 09:12:00,
2013-03-02 03:17:00,36.0,25.0,30.39,WSW,250,0.0,4.0,64,0.00,,,0.00,meteohub,2013-03-02 09:17:00,
2013-03-02 03:22:00,36.3,25.3,30.39,WSW,250,0.0,0.0,64,0.00,,,0.00,meteohub,2013-03-02 09:22:00,
2013-03-02 03:27:00,36.9,25.5,30.38,WSW,250,0.0,0.0,63,0.00,,,0.00,meteohub,2013-03-02 09:27:00,
2013-03-02 03:32:00,37.0,25.2,30.38,WSW,250,0.0,0.0,62,0.00,,,0.00,meteohub,2013-03-02 09:32:00,
2013-03-02 03:37:00,37.4,25.2,30.38,WSW,250,0.0,0.0,61,0.00,,,0.00,meteohub,2013-03-02 09:37:00,
2013-03-02 03:42:00,37.8,25.2,30.38,WSW,250,0.0,0.0,60,0.00,,,0.00,meteohub,2013-03-02 09:42:00,
2013-03-02 03:47:00,37.9,25.0,30.38,WSW,250,0.0,0.0,59,0.00,,,0.00,meteohub,2013-03-02 09:47:00,
2013-03-02 03:52:00,38.1,24.3,30.38,WSW,250,0.0,0.0,57,0.00,,,0.00,meteohub,2013-03-02 09:52:00,
2013-03-02 03:57:00,37.6,24.1,30.38,WSW,250,0.0,0.0,58,0.00,,,0.00,meteohub,2013-03-02 09:57:00,
2013-03-02 04:02:00,36.9,23.9,30.38,WSW,250,0.0,0.0,59,0.00,,,0.00,meteohub,2013-03-02 10:02:00,
2013-03-02 04:07:00,36.1,24.1,30.38,WSW,250,0.0,0.0,61,0.00,,,0.00,meteohub,2013-03-02 10:07:00,
2013-03-02 04:12:00,36.0,24.3,30.38,WSW,250,0.0,0.0,62,0.00,,,0.00,meteohub,2013-03-02 10:12:00,
2013-03-02 04:17:00,35.8,24.1,30.38,West,265,3.0,0.0,62,0.00,,,0.00,meteohub,2013-03-02 10:17:00,
2013-03-02 04:22:00,36.0,24.3,30.39,West,271,0.0,4.0,62,0.00,,,0.00,meteohub,2013-03-02 10:22:00,
2013-03-02 04:27:00,36.0,24.3,30.39,West,273,0.0,5.0,62,0.00,,,0.00,meteohub,2013-03-02 10:27:00,
2013-03-02 04:32:00,36.0,23.9,30.39,NW,311,0.0,5.0,61,0.00,,,0.00,meteohub,2013-03-02 10:32:00,
2013-03-02 04:37:00,36.0,23.9,30.39,NNW,328,5.0,7.0,61,0.00,,,0.00,meteohub,2013-03-02 10:37:00,
2013-03-02 04:42:00,35.8,23.7,30.39,NW,325,5.0,9.0,61,0.00,,,0.00,meteohub,2013-03-02 10:42:00,
2013-03-02 04:47:00,35.4,23.4,30.39,NW,321,5.0,9.0,61,0.00,,,0.00,meteohub,2013-03-02 10:47:00,
2013-03-02 04:52:00,35.2,23.5,30.39,NW,321,0.0,8.0,62,0.00,,,0.00,meteohub,2013-03-02 10:52:00,
2013-03-02 04:57:00,35.2,23.2,30.39,NW,321,0.0,8.0,61,0.00,,,0.00,meteohub,2013-03-02 10:57:00,
2013-03-02 05:02:00,35.2,23.2,30.39,NW,321,0.0,7.0,61,0.00,,,0.00,meteohub,2013-03-02 11:02:00,
2013-03-02 05:07:00,35.2,23.2,30.39,NW,321,0.0,0.0,61,0.00,,,0.00,meteohub,2013-03-02 11:07:00,
2013-03-02 05:12:00,35.2,23.2,30.39,NW,321,0.0,0.0,61,0.00,,,0.00,meteohub,2013-03-02 11:12:00,
2013-03-02 05:17:00,35.2,23.5,30.39,NW,321,0.0,0.0,62,0.00,,,0.00,meteohub,2013-03-02 11:17:00,
2013-03-02 05:22:00,35.2,23.5,30.40,NW,321,0.0,4.0,62,0.00,,,0.00,meteohub,2013-03-02 11:22:00,
2013-03-02 05:27:00,35.4,23.7,30.40,NW,319,0.0,5.0,62,0.00,,,0.00,meteohub,2013-03-02 11:27:00,
2013-03-02 05:32:00,35.4,23.7,30.40,WNW,298,0.0,5.0,62,0.00,,,0.00,meteohub,2013-03-02 11:32:00,
2013-03-02 05:37:00,35.4,23.7,30.40,WNW,299,0.0,2.0,62,0.00,,,0.00,meteohub,2013-03-02 11:37:00,
2013-03-02 05:42:00,35.4,23.7,30.41,NW,311,0.0,2.0,62,0.00,,,0.00,meteohub,2013-03-02 11:42:00,
2013-03-02 05:47:00,35.4,23.7,30.41,NW,311,0.0,6.0,62,0.00,,,0.00,meteohub,2013-03-02 11:47:00,
2013-03-02 05:52:00,35.4,23.7,30.40,NW,311,0.0,6.0,62,0.00,,,0.00,meteohub,2013-03-02 11:52:00,
2013-03-02 05:57:00,35.2,23.9,30.41,NW,311,0.0,0.0,63,0.00,,,0.00,meteohub,2013-03-02 11:57:00,
2013-03-02 06:02:00,34.7,23.0,30.42,NW,306,0.0,5.0,62,0.00,,,0.00,meteohub,2013-03-02 12:02:00,
2013-03-02 06:07:00,33.8,23.0,30.42,WNW,297,0.0,5.0,64,0.00,,,0.00,meteohub,2013-03-02 12:07:00,
2013-03-02 06:12:00,33.3,22.8,30.41,WNW,297,0.0,6.0,65,0.00,,,0.00,meteohub,2013-03-02 12:12:00,
2013-03-02 06:17:00,32.7,22.6,30.42,WNW,297,0.0,6.0,66,0.00,,,0.00,meteohub,2013-03-02 12:17:00,
2013-03-02 06:22:00,32.7,22.6,30.42,WNW,297,0.0,5.0,66,0.00,,,0.00,meteohub,2013-03-02 12:22:00,
2013-03-02 06:27:00,32.5,22.8,30.42,WNW,297,0.0,0.0,67,0.00,,,0.00,meteohub,2013-03-02 12:27:00,
2013-03-02 06:32:00,32.5,22.8,30.42,WNW,297,0.0,0.0,67,0.00,,,0.00,meteohub,2013-03-02 12:32:00,
2013-03-02 06:37:00,32.7,23.0,30.42,WNW,297,0.0,0.0,67,0.00,,,0.00,meteohub,2013-03-02 12:37:00,
2013-03-02 06:42:00,32.7,23.4,30.42,WNW,297,0.0,0.0,68,0.00,,,0.00,meteohub,2013-03-02 12:42:00,
2013-03-02 06:47:00,32.7,23.0,30.42,WNW,297,0.0,0.0,67,0.00,,,0.00,meteohub,2013-03-02 12:47:00,
2013-03-02 06:52:00,32.7,23.0,30.42,WNW,297,0.0,0.0,67,0.00,,,0.00,meteohub,2013-03-02 12:52:00,
2013-03-02 06:57:00,32.5,22.8,30.43,WNW,297,0.0,0.0,67,0.00,,,0.00,meteohub,2013-03-02 12:57:00,
2013-03-02 07:02:00,32.4,23.0,30.43,WNW,297,0.0,0.0,68,0.00,,,0.00,meteohub,2013-03-02 13:02:00,
2013-03-02 07:07:00,32.4,23.0,30.43,WNW,297,0.0,0.0,68,0.00,,,0.00,meteohub,2013-03-02 13:07:00,
2013-03-02 07:12:00,32.4,23.0,30.43,WNW,297,0.0,0.0,68,0.00,,,0.00,meteohub,2013-03-02 13:12:00,
2013-03-02 07:17:00,32.4,23.4,30.43,WNW,297,0.0,0.0,69,0.00,,,0.00,meteohub,2013-03-02 13:17:00,
2013-03-02 07:22:00,32.5,23.2,30.43,WNW,297,0.0,0.0,68,0.00,,,0.00,meteohub,2013-03-02 13:22:00,
2013-03-02 07:27:00,32.7,23.4,30.43,WNW,297,0.0,0.0,68,0.00,,,0.00,meteohub,2013-03-02 13:27:00,
2013-03-02 07:32:00,32.9,23.5,30.44,WNW,297,0.0,0.0,68,0.00,,,0.00,meteohub,2013-03-02 13:32:00,
2013-03-02 07:37:00,33.1,23.7,30.44,WNW,297,0.0,0.0,68,0.00,,,0.00,meteohub,2013-03-02 13:37:00,
2013-03-02 07:42:00,33.4,24.1,30.43,WNW,297,0.0,0.0,68,0.00,,,0.00,meteohub,2013-03-02 13:42:00,
2013-03-02 07:47:00,33.6,23.9,30.44,WNW,297,0.0,0.0,67,0.00,,,0.00,meteohub,2013-03-02 13:47:00,
2013-03-02 07:52:00,34.2,24.4,30.44,WNW,297,0.0,0.0,67,0.00,,,0.00,meteohub,2013-03-02 13:52:00,
2013-03-02 07:57:00,34.5,24.3,30.44,WNW,297,0.0,0.0,66,0.00,,,0.00,meteohub,2013-03-02 13:57:00,
2013-03-02 08:02:00,35.1,24.4,30.44,WNW,297,0.0,0.0,65,0.00,,,0.00,meteohub,2013-03-02 14:02:00,
2013-03-02 08:07:00,35.4,24.4,30.45,WNW,297,0.0,0.0,64,0.00,,,0.00,meteohub,2013-03-02 14:07:00,
2013-03-02 08:13:00,36.1,25.2,30.45,WNW,297,0.0,0.0,64,0.00,,,0.00,meteohub,2013-03-02 14:13:00,
2013-03-02 08:18:00,36.7,25.3,30.45,WNW,297,0.0,0.0,63,0.00,,,0.00,meteohub,2013-03-02 14:18:00,
2013-03-02 08:23:00,37.2,25.3,30.45,WNW,297,0.0,0.0,62,0.00,,,0.00,meteohub,2013-03-02 14:23:00,
2013-03-02 08:28:00,37.8,25.5,30.46,WNW,297,0.0,0.0,61,0.00,,,0.00,meteohub,2013-03-02 14:28:00,
2013-03-02 08:33:00,38.5,26.2,30.46,WNW,303,0.0,0.0,61,0.00,,,0.00,meteohub,2013-03-02 14:33:00,
2013-03-02 08:38:00,39.0,26.2,30.46,WNW,303,0.0,0.0,60,0.00,,,0.00,meteohub,2013-03-02 14:38:00,
2013-03-02 08:43:00,39.4,26.2,30.47,WNW,303,0.0,0.0,59,0.00,,,0.00,meteohub,2013-03-02 14:43:00,
2013-03-02 08:48:00,39.6,26.1,30.46,WNW,303,0.0,2.0,58,0.00,,,0.00,meteohub,2013-03-02 14:48:00,
2013-03-02 08:53:00,39.9,26.4,30.47,WNW,303,0.0,2.0,58,0.00,,,0.00,meteohub,2013-03-02 14:53:00,
2013-03-02 08:58:00,40.8,27.1,30.47,WNW,303,0.0,2.0,58,0.00,,,0.00,meteohub,2013-03-02 14:58:00,
2013-03-02 09:03:00,41.5,27.0,30.46,NW,311,0.0,4.0,56,0.00,,,0.00,meteohub,2013-03-02 15:03:00,
2013-03-02 09:08:00,42.1,27.5,30.47,NW,311,0.0,4.0,56,0.00,,,0.00,meteohub,2013-03-02 15:08:00,
2013-03-02 09:13:00,42.4,27.5,30.47,NW,308,0.0,0.0,55,0.00,,,0.00,meteohub,2013-03-02 15:13:00,
2013-03-02 09:18:00,43.0,27.9,30.47,WNW,302,0.0,0.0,55,0.00,,,0.00,meteohub,2013-03-02 15:18:00,
2013-03-02 09:23:00,43.3,27.3,30.47,NW,304,0.0,5.0,53,0.00,,,0.00,meteohub,2013-03-02 15:23:00,
2013-03-02 09:28:00,43.5,27.5,30.46,WNW,296,6.0,9.0,53,0.00,,,0.00,meteohub,2013-03-02 15:28:00,
2013-03-02 09:33:00,43.9,27.3,30.47,WNW,289,0.0,9.0,52,0.00,,,0.00,meteohub,2013-03-02 15:33:00,
2013-03-02 09:38:00,44.2,27.3,30.47,WNW,290,0.0,8.0,51,0.00,,,0.00,meteohub,2013-03-02 15:38:00,
2013-03-02 09:43:00,44.6,27.5,30.46,WNW,295,5.0,8.0,51,0.00,,,0.00,meteohub,2013-03-02 15:43:00,
2013-03-02 09:48:00,45.0,27.5,30.46,WNW,283,0.0,7.0,50,0.00,,,0.00,meteohub,2013-03-02 15:48:00,
2013-03-02 09:53:00,45.3,27.9,30.46,West,279,0.0,8.0,50,0.00,,,0.00,meteohub,2013-03-02 15:53:00,
2013-03-02 09:58:00,45.7,27.7,30.46,WNW,303,4.0,8.0,49,0.00,,,0.00,meteohub,2013-03-02 15:58:00,
2013-03-02 10:03:00,46.0,27.5,30.46,NNW,340,0.0,7.0,48,0.00,,,0.00,meteohub,2013-03-02 16:03:00,
2013-03-02 10:08:00,46.4,26.8,30.46,NNW,331,2.0,7.0,46,0.00,,,0.00,meteohub,2013-03-02 16:08:00,
2013-03-02 10:13:00,46.2,26.6,30.46,NNW,331,0.0,8.0,46,0.00,,,0.00,meteohub,2013-03-02 16:13:00,
2013-03-02 10:18:00,46.8,27.1,30.46,NNW,329,0.0,9.0,46,0.00,,,0.00,meteohub,2013-03-02 16:18:00,
2013-03-02 10:23:00,47.1,27.3,30.46,West,276,2.0,9.0,46,0.00,,,0.00,meteohub,2013-03-02 16:23:00,
2013-03-02 10:28:00,47.7,27.3,30.46,WNW,286,1.0,7.0,45,0.00,,,0.00,meteohub,2013-03-02 16:28:00,
2013-03-02 10:33:00,47.8,27.5,30.46,WNW,286,0.0,7.0,45,0.00,,,0.00,meteohub,2013-03-02 16:33:00,
2013-03-02 10:38:00,48.6,27.7,30.46,WNW,286,0.0,7.0,44,0.00,,,0.00,meteohub,2013-03-02 16:38:00,
2013-03-02 10:43:00,48.9,27.3,30.46,West,271,4.0,6.0,43,0.00,,,0.00,meteohub,2013-03-02 16:43:00,
2013-03-02 10:48:00,48.7,27.9,30.45,West,269,0.0,6.0,44,0.00,,,0.00,meteohub,2013-03-02 16:48:00,
2013-03-02 10:53:00,49.1,27.5,30.45,WSW,258,1.0,8.0,43,0.00,,,0.00,meteohub,2013-03-02 16:53:00,
2013-03-02 10:58:00,49.1,27.0,30.45,WNW,290,0.0,8.0,42,0.00,,,0.00,meteohub,2013-03-02 16:58:00,
2013-03-02 11:04:00,49.3,27.7,30.45,WNW,290,0.0,8.0,43,0.00,,,0.00,meteohub,2013-03-02 17:04:00,
2013-03-02 11:08:00,49.5,27.3,30.45,WNW,290,0.0,8.0,42,0.00,,,0.00,meteohub,2013-03-02 17:08:00,
2013-03-02 11:14:00,49.6,27.5,30.45,WNW,290,0.0,6.0,42,0.00,,,0.00,meteohub,2013-03-02 17:14:00,
2013-03-02 11:19:00,49.8,27.7,30.45,WSW,248,5.0,6.0,42,0.00,,,0.00,meteohub,2013-03-02 17:19:00,
2013-03-02 11:24:00,50.2,28.0,30.44,WSW,253,2.0,8.0,42,0.00,,,0.00,meteohub,2013-03-02 17:24:00,
2013-03-02 11:29:00,50.4,27.5,30.44,WSW,253,0.0,8.0,41,0.00,,,0.00,meteohub,2013-03-02 17:29:00,
2013-03-02 11:34:00,50.9,27.5,30.43,WSW,251,6.0,8.0,40,0.00,,,0.00,meteohub,2013-03-02 17:34:00,
2013-03-02 11:39:00,51.4,27.3,30.43,SW,221,8.0,17.0,39,0.00,,,0.00,meteohub,2013-03-02 17:39:00,
2013-03-02 11:44:00,51.6,27.5,30.44,WSW,242,0.0,17.0,39,0.00,,,0.00,meteohub,2013-03-02 17:44:00,
2013-03-02 11:49:00,52.2,27.3,30.43,West,275,6.0,17.0,38,0.00,,,0.00,meteohub,2013-03-02 17:49:00,
2013-03-02 11:54:00,52.2,27.3,30.43,WSW,248,11.0,11.0,38,0.00,,,0.00,meteohub,2013-03-02 17:54:00,
2013-03-02 11:59:00,52.2,27.3,30.43,WNW,285,6.0,11.0,38,0.00,,,0.00,meteohub,2013-03-02 17:59:00,
2013-03-02 12:04:00,52.3,26.8,30.43,WNW,285,0.0,12.0,37,0.00,,,0.00,meteohub,2013-03-02 18:04:00,
2013-03-02 12:09:00,52.5,27.0,30.42,NW,324,0.0,12.0,37,0.00,,,0.00,meteohub,2013-03-02 18:09:00,
2013-03-02 12:14:00,52.5,27.7,30.42,NW,320,0.0,12.0,38,0.00,,,0.00,meteohub,2013-03-02 18:14:00,
2013-03-02 12:19:00,53.1,27.5,30.42,NW,307,0.0,11.0,37,0.00,,,0.00,meteohub,2013-03-02 18:19:00,
2013-03-02 12:24:00,53.8,27.5,30.42,SW,221,8.0,10.0,36,0.00,,,0.00,meteohub,2013-03-02 18:24:00,
2013-03-02 12:29:00,54.0,27.0,30.41,WSW,251,0.0,11.0,35,0.00,,,0.00,meteohub,2013-03-02 18:29:00,
2013-03-02 12:34:00,54.3,27.3,30.41,WSW,253,0.0,11.0,35,0.00,,,0.00,meteohub,2013-03-02 18:34:00,
2013-03-02 12:39:00,54.9,27.0,30.41,NNW,331,6.0,11.0,34,0.00,,,0.00,meteohub,2013-03-02 18:39:00,
2013-03-02 12:44:00,55.2,26.6,30.41,NW,305,0.0,8.0,33,0.00,,,0.00,meteohub,2013-03-02 18:44:00,
2013-03-02 12:49:00,55.4,26.8,30.40,WNW,300,0.0,13.0,33,0.00,,,0.00,meteohub,2013-03-02 18:49:00,
2013-03-02 12:54:00,55.6,27.0,30.40,West,270,0.0,13.0,33,0.00,,,0.00,meteohub,2013-03-02 18:54:00,
2013-03-02 12:59:00,55.9,26.4,30.40,West,263,0.0,12.0,32,0.00,,,0.00,meteohub,2013-03-02 18:59:00,
2013-03-02 13:04:00,56.5,27.0,30.39,WNW,283,0.0,9.0,32,0.00,,,0.00,meteohub,2013-03-02 19:04:00,
2013-03-02 13:09:00,56.7,27.1,30.39,WNW,283,5.0,11.0,32,0.00,,,0.00,meteohub,2013-03-02 19:09:00,
2013-03-02 13:14:00,57.0,27.5,30.38,WSW,253,5.0,11.0,32,0.00,,,0.00,meteohub,2013-03-02 19:14:00,
2013-03-02 13:19:00,57.2,26.8,30.38,West,281,5.0,11.0,31,0.00,,,0.00,meteohub,2013-03-02 19:19:00,
2013-03-02 13:24:00,57.4,27.0,30.38,WNW,292,4.0,13.0,31,0.00,,,0.00,meteohub,2013-03-02 19:24:00,
2013-03-02 13:29:00,57.7,27.3,30.38,NW,316,2.0,13.0,31,0.00,,,0.00,meteohub,2013-03-02 19:29:00,
2013-03-02 13:34:00,57.7,27.3,30.37,West,262,4.0,13.0,31,0.00,,,0.00,meteohub,2013-03-02 19:34:00,
2013-03-02 13:39:00,57.9,27.5,30.36,WSW,254,0.0,13.0,31,0.00,,,0.00,meteohub,2013-03-02 19:39:00,
2013-03-02 13:44:00,58.5,27.1,30.36,WNW,282,5.0,13.0,30,0.00,,,0.00,meteohub,2013-03-02 19:44:00,
2013-03-02 13:49:00,58.6,27.3,30.36,NW,317,0.0,13.0,30,0.00,,,0.00,meteohub,2013-03-02 19:49:00,
2013-03-02 13:54:00,58.6,27.3,30.35,WNW,293,7.0,12.0,30,0.00,,,0.00,meteohub,2013-03-02 19:54:00,
2013-03-02 13:59:00,59.2,27.7,30.35,West,267,5.0,12.0,30,0.00,,,0.00,meteohub,2013-03-02 19:59:00,
2013-03-02 14:04:00,59.5,27.3,30.34,West,259,8.0,12.0,29,0.00,,,0.00,meteohub,2013-03-02 20:04:00,
2013-03-02 14:09:00,59.5,27.3,30.34,WSW,255,3.0,14.0,29,0.00,,,0.00,meteohub,2013-03-02 20:09:00,
2013-03-02 14:14:00,59.9,27.5,30.34,WNW,289,8.0,14.0,29,0.00,,,0.00,meteohub,2013-03-02 20:14:00,
2013-03-02 14:19:00,60.4,28.0,30.33,WNW,282,0.0,14.0,29,0.00,,,0.00,meteohub,2013-03-02 20:19:00,
2013-03-02 14:24:00,60.8,27.5,30.33,West,270,1.0,12.0,28,0.00,,,0.00,meteohub,2013-03-02 20:24:00,
2013-03-02 14:29:00,60.8,27.5,30.33,West,261,11.0,14.0,28,0.00,,,0.00,meteohub,2013-03-02 20:29:00,
2013-03-02 14:34:00,60.8,27.5,30.32,NNW,338,9.0,14.0,28,0.00,,,0.00,meteohub,2013-03-02 20:34:00,
2013-03-02 14:39:00,60.6,28.2,30.32,WNW,282,0.0,14.0,29,0.00,,,0.00,meteohub,2013-03-02 20:39:00,
2013-03-02 14:45:00,61.0,27.7,30.32,NW,305,0.0,13.0,28,0.00,,,0.00,meteohub,2013-03-02 20:45:00,
2013-03-02 14:50:00,61.3,27.9,30.32,WNW,290,2.0,12.0,28,0.00,,,0.00,meteohub,2013-03-02 20:50:00,
2013-03-02 14:55:00,61.5,28.0,30.31,West,275,4.0,13.0,28,0.00,,,0.00,meteohub,2013-03-02 20:55:00,
2013-03-02 15:00:00,61.5,28.0,30.31,West,260,8.0,13.0,28,0.00,,,0.00,meteohub,2013-03-02 21:00:00,
2013-03-02 15:05:00,61.5,28.0,30.31,WSW,252,6.0,16.0,28,0.00,,,0.00,meteohub,2013-03-02 21:05:00,
2013-03-02 15:10:00,62.1,28.6,30.30,WSW,250,3.0,16.0,28,0.00,,,0.00,meteohub,2013-03-02 21:10:00,
2013-03-02 15:15:00,62.8,28.2,30.30,West,259,1.0,16.0,27,0.00,,,0.00,meteohub,2013-03-02 21:15:00,
2013-03-02 15:20:00,63.0,28.4,30.30,WSW,240,2.0,14.0,27,0.00,,,0.00,meteohub,2013-03-02 21:20:00,
2013-03-02 15:25:00,63.0,28.4,30.30,SW,223,4.0,15.0,27,0.00,,,0.00,meteohub,2013-03-02 21:25:00,
2013-03-02 15:30:00,63.1,28.6,30.30,WNW,301,0.0,15.0,27,0.00,,,0.00,meteohub,2013-03-02 21:30:00,
2013-03-02 15:35:00,63.3,27.9,30.29,NW,305,2.0,15.0,26,0.00,,,0.00,meteohub,2013-03-02 21:35:00,
2013-03-02 15:40:00,63.3,27.9,30.29,West,259,5.0,12.0,26,0.00,,,0.00,meteohub,2013-03-02 21:40:00,
2013-03-02 15:45:00,63.3,27.9,30.29,WSW,246,5.0,11.0,26,0.00,,,0.00,meteohub,2013-03-02 21:45:00,
2013-03-02 15:50:00,63.7,28.2,30.29,West,273,7.0,13.0,26,0.00,,,0.00,meteohub,2013-03-02 21:50:00,
2013-03-02 15:55:00,63.9,28.2,30.28,SW,235,0.0,13.0,26,0.00,,,0.00,meteohub,2013-03-02 21:55:00,
2013-03-02 16:00:00,64.2,28.6,30.28,WSW,237,5.0,12.0,26,0.00,,,0.00,meteohub,2013-03-02 22:00:00,
2013-03-02 16:05:00,64.6,28.9,30.28,WSW,248,7.0,11.0,26,0.00,,,0.00,meteohub,2013-03-02 22:05:00,
2013-03-02 16:10:00,64.4,28.8,30.27,West,265,0.0,12.0,26,0.00,,,0.00,meteohub,2013-03-02 22:10:00,
2013-03-02 16:15:00,64.6,28.9,30.27,WNW,292,8.0,14.0,26,0.00,,,0.00,meteohub,2013-03-02 22:15:00,
2013-03-02 16:20:00,64.6,28.9,30.27,NNW,328,4.0,14.0,26,0.00,,,0.00,meteohub,2013-03-02 22:20:00,
2013-03-02 16:25:00,64.8,29.1,30.27,West,264,8.0,11.0,26,0.00,,,0.00,meteohub,2013-03-02 22:25:00,
2013-03-02 16:30:00,64.9,29.3,30.27,WSW,242,0.0,13.0,26,0.00,,,0.00,meteohub,2013-03-02 22:30:00,
2013-03-02 16:35:00,65.1,28.4,30.26,WNW,284,4.0,13.0,25,0.00,,,0.00,meteohub,2013-03-02 22:35:00,
2013-03-02 16:40:00,65.3,28.6,30.26,North,355,7.0,13.0,25,0.00,,,0.00,meteohub,2013-03-02 22:40:00,
2013-03-02 16:45:00,65.7,28.9,30.27,West,272,2.0,17.0,25,0.00,,,0.00,meteohub,2013-03-02 22:45:00,
2013-03-02 16:50:00,65.8,28.9,30.27,WNW,286,0.0,17.0,25,0.00,,,0.00,meteohub,2013-03-02 22:50:00,
2013-03-02 16:55:00,65.8,28.9,30.26,WSW,246,5.0,17.0,25,0.00,,,0.00,meteohub,2013-03-02 22:55:00,
2013-03-02 17:01:00,65.8,28.9,30.26,NW,304,0.0,12.0,25,0.00,,,0.00,meteohub,2013-03-02 23:01:00,
2013-03-02 17:06:00,65.7,28.9,30.26,NW,319,5.0,10.0,25,0.00,,,0.00,meteohub,2013-03-02 23:06:00,
2013-03-02 17:11:00,65.7,28.9,30.26,NNW,329,0.0,10.0,25,0.00,,,0.00,meteohub,2013-03-02 23:11:00,
2013-03-02 17:16:00,65.8,28.9,30.26,NNW,327,0.0,10.0,25,0.00,,,0.00,meteohub,2013-03-02 23:16:00,
2013-03-02 17:21:00,66.0,29.1,30.26,NNW,331,4.0,10.0,25,0.00,,,0.00,meteohub,2013-03-02 23:21:00,
2013-03-02 17:26:00,66.0,29.1,30.26,NW,317,0.0,11.0,25,0.00,,,0.00,meteohub,2013-03-02 23:26:00,
2013-03-02 17:31:00,66.0,29.1,30.26,NW,323,0.0,11.0,25,0.00,,,0.00,meteohub,2013-03-02 23:31:00,
2013-03-02 17:36:00,66.0,29.1,30.26,NW,324,0.0,11.0,25,0.00,,,0.00,meteohub,2013-03-02 23:36:00,
2013-03-02 17:41:00,66.2,29.3,30.25,WNW,296,0.0,5.0,25,0.00,,,0.00,meteohub,2013-03-02 23:41:00,
2013-03-02 17:46:00,66.4,29.5,30.25,WNW,296,0.0,6.0,25,0.00,,,0.00,meteohub,2013-03-02 23:46:00,
2013-03-02 17:51:00,66.4,28.4,30.25,NNW,333,0.0,6.0,24,0.00,,,0.00,meteohub,2013-03-02 23:51:00,
2013-03-02 17:56:00,66.6,28.6,30.25,NNW,333,0.0,6.0,24,0.00,,,0.00,meteohub,2013-03-02 23:56:00,
2013-03-02 18:01:00,66.6,28.6,30.25,NNW,333,0.0,1.0,24,0.00,,,0.00,meteohub,2013-03-03 00:01:00,
2013-03-02 18:06:00,66.4,29.5,30.25,NNW,333,0.0,0.0,25,0.00,,,0.00,meteohub,2013-03-03 00:06:00,
2013-03-02 18:11:00,66.2,28.4,30.25,NNW,333,0.0,0.0,24,0.00,,,0.00,meteohub,2013-03-03 00:11:00,
2013-03-02 18:16:00,66.0,29.1,30.25,NNW,333,0.0,0.0,25,0.00,,,0.00,meteohub,2013-03-03 00:16:00,
2013-03-02 18:21:00,65.8,28.9,30.25,NNW,333,0.0,0.0,25,0.00,,,0.00,meteohub,2013-03-03 00:21:00,
2013-03-02 18:26:00,65.8,28.9,30.25,NNW,333,0.0,0.0,25,0.00,,,0.00,meteohub,2013-03-03 00:26:00,
2013-03-02 18:31:00,66.0,29.1,30.25,NNW,333,0.0,0.0,25,0.00,,,0.00,meteohub,2013-03-03 00:31:00,
2013-03-02 18:36:00,65.8,28.9,30.25,NNW,333,0.0,0.0,25,0.00,,,0.00,meteohub,2013-03-03 00:36:00,
2013-03-02 18:41:00,65.7,28.9,30.25,NNW,333,0.0,0.0,25,0.00,,,0.00,meteohub,2013-03-03 00:41:00,
2013-03-02 18:46:00,65.3,28.6,30.24,NNW,333,0.0,0.0,25,0.00,,,0.00,meteohub,2013-03-03 00:46:00,
2013-03-02 18:51:00,64.9,29.3,30.25,NNW,333,0.0,0.0,26,0.00,,,0.00,meteohub,2013-03-03 00:51:00,
2013-03-02 18:56:00,64.4,28.8,30.24,NNW,333,0.0,0.0,26,0.00,,,0.00,meteohub,2013-03-03 00:56:00,
2013-03-02 19:01:00,63.9,29.3,30.25,NNW,333,0.0,0.0,27,0.00,,,0.00,meteohub,2013-03-03 01:01:00,
2013-03-02 19:06:00,63.1,29.5,30.24,NNW,333,0.0,0.0,28,0.00,,,0.00,meteohub,2013-03-03 01:06:00,
2013-03-02 19:11:00,62.4,29.7,30.24,NNW,333,0.0,0.0,29,0.00,,,0.00,meteohub,2013-03-03 01:11:00,
2013-03-02 19:16:00,61.9,29.3,30.24,NNW,333,0.0,0.0,29,0.00,,,0.00,meteohub,2013-03-03 01:16:00,
2013-03-02 19:21:00,61.2,28.6,30.25,NNW,333,0.0,0.0,29,0.00,,,0.00,meteohub,2013-03-03 01:21:00,
2013-03-02 19:26:00,60.6,30.6,30.24,NNW,333,0.0,0.0,32,0.00,,,0.00,meteohub,2013-03-03 01:26:00,
2013-03-02 19:32:00,59.7,30.6,30.24,NNW,333,0.0,0.0,33,0.00,,,0.00,meteohub,2013-03-03 01:32:00,
2013-03-02 19:37:00,59.2,29.3,30.25,NNW,333,0.0,0.0,32,0.00,,,0.00,meteohub,2013-03-03 01:37:00,
2013-03-02 19:42:00,58.5,29.5,30.25,NNW,333,0.0,0.0,33,0.00,,,0.00,meteohub,2013-03-03 01:42:00,
2013-03-02 19:47:00,58.1,29.1,30.24,NNW,333,0.0,0.0,33,0.00,,,0.00,meteohub,2013-03-03 01:47:00,
2013-03-02 19:52:00,57.6,29.5,30.25,NNW,333,0.0,0.0,34,0.00,,,0.00,meteohub,2013-03-03 01:52:00,
2013-03-02 19:57:00,57.2,29.1,30.25,NW,319,0.0,0.0,34,0.00,,,0.00,meteohub,2013-03-03 01:57:00,
2013-03-02 20:02:00,57.0,28.9,30.25,NW,318,0.0,0.0,34,0.00,,,0.00,meteohub,2013-03-03 02:02:00,
2013-03-02 20:07:00,56.7,29.3,30.25,NW,315,0.0,0.0,35,0.00,,,0.00,meteohub,2013-03-03 02:07:00,
2013-03-02 20:12:00,56.5,29.1,30.24,NW,313,0.0,0.0,35,0.00,,,0.00,meteohub,2013-03-03 02:12:00,
2013-03-02 20:17:00,55.9,28.8,30.24,NW,313,0.0,0.0,35,0.00,,,0.00,meteohub,2013-03-03 02:17:00,
2013-03-02 20:22:00,55.8,29.1,30.23,NW,313,0.0,0.0,36,0.00,,,0.00,meteohub,2013-03-03 02:22:00,
2013-03-02 20:27:00,55.4,28.9,30.23,NW,313,0.0,0.0,36,0.00,,,0.00,meteohub,2013-03-03 02:27:00,
2013-03-02 20:32:00,55.0,29.3,30.23,NW,313,0.0,0.0,37,0.00,,,0.00,meteohub,2013-03-03 02:32:00,
2013-03-02 20:37:00,54.9,29.1,30.23,NW,313,0.0,0.0,37,0.00,,,0.00,meteohub,2013-03-03 02:37:00,
2013-03-02 20:42:00,54.7,28.9,30.23,NW,313,0.0,0.0,37,0.00,,,0.00,meteohub,2013-03-03 02:42:00,
2013-03-02 20:47:00,54.3,28.6,30.23,NW,313,0.0,0.0,37,0.00,,,0.00,meteohub,2013-03-03 02:47:00,
2013-03-02 20:52:00,54.1,29.1,30.24,NW,313,0.0,0.0,38,0.00,,,0.00,meteohub,2013-03-03 02:52:00,
2013-03-02 20:57:00,54.0,30.2,30.23,NW,313,0.0,0.0,40,0.00,,,0.00,meteohub,2013-03-03 02:57:00,
2013-03-02 21:02:00,53.6,29.3,30.23,NW,313,0.0,0.0,39,0.00,,,0.00,meteohub,2013-03-03 03:02:00,
2013-03-02 21:07:00,53.4,29.7,30.24,NW,313,0.0,0.0,40,0.00,,,0.00,meteohub,2013-03-03 03:07:00,
2013-03-02 21:12:00,53.1,29.3,30.24,NW,313,0.0,0.0,40,0.00,,,0.00,meteohub,2013-03-03 03:12:00,
2013-03-02 21:17:00,52.9,29.8,30.24,NW,313,0.0,0.0,41,0.00,,,0.00,meteohub,2013-03-03 03:17:00,
2013-03-02 21:22:00,52.5,28.9,30.24,NW,313,0.0,0.0,40,0.00,,,0.00,meteohub,2013-03-03 03:22:00,
2013-03-02 21:27:00,52.3,29.3,30.25,NW,313,0.0,0.0,41,0.00,,,0.00,meteohub,2013-03-03 03:27:00,
2013-03-02 21:32:00,52.2,29.8,30.25,NW,313,0.0,0.0,42,0.00,,,0.00,meteohub,2013-03-03 03:32:00,
2013-03-02 21:37:00,52.2,29.1,30.25,NW,313,0.0,0.0,41,0.00,,,0.00,meteohub,2013-03-03 03:37:00,
2013-03-02 21:42:00,52.2,29.1,30.24,NW,313,0.0,0.0,41,0.00,,,0.00,meteohub,2013-03-03 03:42:00,
2013-03-02 21:47:00,52.3,28.8,30.24,NW,313,0.0,0.0,40,0.00,,,0.00,meteohub,2013-03-03 03:47:00,
2013-03-02 21:52:00,52.3,28.8,30.24,NW,313,0.0,0.0,40,0.00,,,0.00,meteohub,2013-03-03 03:52:00,
2013-03-02 21:57:00,52.3,28.8,30.24,NW,311,0.0,0.0,40,0.00,,,0.00,meteohub,2013-03-03 03:57:00,
2013-03-02 22:02:00,52.2,28.6,30.24,NW,311,0.0,0.0,40,0.00,,,0.00,meteohub,2013-03-03 04:02:00,
2013-03-02 22:07:00,52.0,28.4,30.24,WNW,303,1.0,0.0,40,0.00,,,0.00,meteohub,2013-03-03 04:07:00,
2013-03-02 22:12:00,51.8,28.2,30.24,WNW,299,0.0,4.0,40,0.00,,,0.00,meteohub,2013-03-03 04:12:00,
2013-03-02 22:17:00,51.6,28.0,30.24,WNW,299,0.0,4.0,40,0.00,,,0.00,meteohub,2013-03-03 04:17:00,
2013-03-02 22:23:00,51.4,27.9,30.24,WNW,299,0.0,4.0,40,0.00,,,0.00,meteohub,2013-03-03 04:23:00,
2013-03-02 22:28:00,51.3,28.4,30.24,WNW,299,0.0,0.0,41,0.00,,,0.00,meteohub,2013-03-03 04:28:00,
2013-03-02 22:33:00,51.1,28.2,30.23,WNW,299,0.0,0.0,41,0.00,,,0.00,meteohub,2013-03-03 04:33:00,
2013-03-02 22:38:00,50.9,28.0,30.24,WNW,294,0.0,5.0,41,0.00,,,0.00,meteohub,2013-03-03 04:38:00,
2013-03-02 22:43:00,50.7,28.4,30.23,WNW,293,0.0,5.0,42,0.00,,,0.00,meteohub,2013-03-03 04:43:00,
2013-03-02 22:48:00,50.7,27.9,30.23,WNW,293,0.0,5.0,41,0.00,,,0.00,meteohub,2013-03-03 04:48:00,
2013-03-02 22:53:00,50.7,27.9,30.23,WSW,258,0.0,4.0,41,0.00,,,0.00,meteohub,2013-03-03 04:53:00,
2013-03-02 22:58:00,50.7,27.9,30.23,SW,221,0.0,0.0,41,0.00,,,0.00,meteohub,2013-03-03 04:58:00,
2013-03-02 23:00:00,50.7,27.9,30.23,SW,221,0.0,0.0,41,0.00,,,0.00,meteohub,2013-03-03 05:00:00,
2013-03-02 23:01:00,50.7,27.9,30.23,SW,221,0.0,6.0,41,0.00,,,0.00,meteohub,2013-03-03 05:01:00,
2013-03-02 23:06:00,50.5,28.2,30.22,SW,221,0.0,6.0,42,0.00,,,0.00,meteohub,2013-03-03 05:06:00,
2013-03-02 23:11:00,50.2,28.0,30.22,SW,221,0.0,3.0,42,0.00,,,0.00,meteohub,2013-03-03 05:11:00,
2013-03-02 23:16:00,50.0,27.9,30.22,SW,221,0.0,0.0,42,0.00,,,0.00,meteohub,2013-03-03 05:16:00,
2013-03-02 23:21:00,49.6,27.5,30.22,SW,221,0.0,0.0,42,0.00,,,0.00,meteohub,2013-03-03 05:21:00,
2013-03-02 23:26:00,49.5,27.9,30.22,SW,221,0.0,3.0,43,0.00,,,0.00,meteohub,2013-03-03 05:26:00,
2013-03-02 23:31:00,48.9,27.3,30.22,SW,228,2.0,3.0,43,0.00,,,0.00,meteohub,2013-03-03 05:31:00,
2013-03-02 23:36:00,48.7,27.9,30.22,SW,232,0.0,4.0,44,0.00,,,0.00,meteohub,2013-03-03 05:36:00,
2013-03-02 23:41:00,48.6,27.7,30.22,SW,236,0.0,4.0,44,0.00,,,0.00,meteohub,2013-03-03 05:41:00,
2013-03-02 23:46:00,48.2,27.3,30.22,SW,234,0.0,4.0,44,0.00,,,0.00,meteohub,2013-03-03 05:46:00,
2013-03-02 23:51:00,48.0,27.7,30.22,SW,234,0.0,4.0,45,0.00,,,0.00,meteohub,2013-03-03 05:51:00,
2013-03-02 23:56:00,47.8,27.5,30.22,SW,235,0.0,0.0,45,0.00,,,0.00,meteohub,2013-03-03 05:56:00,